Starlink 1039

operational
NORAD ID: 44744 Int'l Des: 2019-074 Owner: SPXS Country: US Constellation: starlink
LEOCIRCULARSTARLINK_TYPE

Über Starlink 1039

Beschreibung wird geladen...

Live-Position

3D-Globus wird geladen...

Nächste Überflüge

Höhenverlauf

Altitude vs Time

uPlot chart will show altitude changes over time

Zweizeiliger Elementsatz

1 44744U 19074AH 25259.49183010 .00023622 00000-0 14819-2 0 9993
2 44744 53.0513 288.0334 0005012 334.7606 25.3139 15.09210327321949
Epoch: 16. Sept. 2025 • Age: 36 hours

Aktueller Status

Höhe 540.3 km
Geschwindigkeit 7.59 km/s
Subsatellitenpunkt -19.54°S, 95.13°W
Startdatum 11. Nov. 2019
Alter 5.8 years
Typ internet

Technische Details

Klassifizierung Payload
Masse 260.00 kg
Trockenmasse 248.00 kg
Gesamtmasse 260.00 kg
Länge 0.20 m
Durchmesser 2.80 m
Spannweite 9.00 m
Form Box + pan
Hersteller SPXS
Bus-Typ Starlink
Phasenstatus In Orbit
Besitzer/Staat SPXS/US

Große Konstellationen

Loading constellations...